Regional Weather Roundup
Issued by NWS

Home | Current Version | Previous Version | Text Only | Print | Product List | Glossary Off
Versions: 1 2 3 4 5 6 7 8 9 10 11 12 13 14 15 16 17 18 19 20 21 22 23 24 25 26 27 28

000
ASUS45 KPSR 181710
RWRAZ

ARIZONA HOURLY REGIONAL WEATHER ROUNDUP
NATIONAL WEATHER SERVICE PHOENIX AZ
1000 AM MST SUN FEB 18 2018

NOTE: FAIR INDICATES FEW OR NO CLOUDS BELOW 12,000 FEET WITH NO
SIGNIFICANT WEATHER AND/OR OBSTRUCTIONS TO VISIBILITY.

AZZ001>003-036-181800-
NORTHWEST ARIZONA

CITY           SKY/WX    TMP DP  RH WIND       PRES   REMARKS
BULLHEAD CITY  SUNNY     57  27  30 S9        29.91F
KINGMAN        SUNNY     55  29  36 CALM      29.92F
$$

AZZ004>008-015-016-018-181800-
NORTH CENTRAL ARIZONA

CITY           SKY/WX    TMP DP  RH WIND       PRES   REMARKS
GRAND CANYON   PTSUNNY   39  34  82 SW16G25   29.94F WCI  30
WILLIAMS       SUNNY     45  28  53 S15       29.95F
PRESCOTT       MOSUNNY   48  34  58 S10       29.99F
FLAGSTAFF      MOSUNNY   38  29  70 SW20G26   29.99S WCI  28
PAYSON         CLOUDY    48  39  71 VRB5      30.02S
PAGE           SUNNY     46  25  43 CALM      29.86F
$$

AZZ009>014-017-181800-
NORTHEAST ARIZONA

CITY           SKY/WX    TMP DP  RH WIND       PRES   REMARKS
WINSLOW        PTSUNNY   53  34  48 NW6       29.96F
SAINT JOHNS    SUNNY     50  35  56 CALM      29.96F
WINDOW ROCK    MOSUNNY   47  34  60 S16G22    29.98F
SHOW LOW       SUNNY     48  37  66 S32G40    29.99S
$$

AZZ540-542>544-546-548-181800-
GREATER PHOENIX AREA

CITY           SKY/WX    TMP DP  RH WIND       PRES   REMARKS
PHOENIX        MOSUNNY   60  51  72 NE6       29.96S
BUCKEYE        SUNNY     57  50  77 E6        29.98S
GLENDALE       MOSUNNY   57  48  72 CALM      30.00R
LUKE AFB       SUNNY     58  49  70 NE3       29.96S
DEER VALLEY    SUNNY     59  48  67 SE3       29.97S
SCOTTSDALE     MOSUNNY   59  48  67 S6        29.99R
MESA-FALCON    MOSUNNY   63  50  63 S7        29.99
MESA-GATEWAY   MOSUNNY   61  52  72 SE9       29.99R
CHANDLER       SUNNY     59  50  72 CALM      29.98R
$$

AZZ539-553-181800-
SOUTHWEST MARICOPA COUNTY AND PINAL COUNTY

CITY           SKY/WX    TMP DP  RH WIND       PRES   REMARKS
CASA GRANDE      N/A     58  52  80 CALM      29.99R
GILA BEND      FAIR      61  48  61 CALM      29.96S
$$

AZZ503-504-507>509-181800-
SOUTHEAST ARIZONA

CITY           SKY/WX    TMP DP  RH WIND       PRES   REMARKS
TUCSON         PTSUNNY   60  50  69 CALM      30.02F
DAVIS-MONTHAN  MOSUNNY   60  56  87 CALM      30.01S
NOGALES        CLOUDY    55  50  83 CALM      30.04S
SIERRA VISTA   PTSUNNY   59  48  67 CALM      30.06S
DOUGLAS        MOSUNNY   58  51  78 S10       30.04F
SAFFORD        MOSUNNY   57  47  69 CALM      30.00S
$$

AZZ532-181800-
SOUTHWEST ARIZONA

CITY           SKY/WX    TMP DP  RH WIND       PRES   REMARKS
YUMA           SUNNY     62  28  27 E5        29.96S
$$

CAZ041-043-047-048-061-525>527-560>570-181800-
SOUTHERN CALIFORNIA

CITY           SKY/WX    TMP DP  RH WIND       PRES   REMARKS
DOWNTOWN L.A.  SUNNY     59  38  45 CALM      30.00S
L.A. AIRPORT   MOSUNNY   59  50  72 W6        30.01R
SAN DIEGO      PTSUNNY   62  48  60 CALM      30.03R
BURBANK        SUNNY     56  35  45 CALM      29.99S
ONTARIO        MOSUNNY   58  35  42 CALM      30.00S
RIVERSIDE      SUNNY     57  35  43 CALM      30.00S
PALM SPRINGS   SUNNY     62  27  26 CALM      29.95S
EL CENTRO NAS  SUNNY     63  31  30 SE6       29.95F
IMPERIAL       SUNNY     65  29  25 SE7       29.93S
BLYTHE         SUNNY     59  27  29 S6        29.93F
NEEDLES        SUNNY     62  28  27 E5        29.91S
$$

NVZ020-UTZ003-181800-
SOUTHERN NEVADA-UTAH

CITY           SKY/WX    TMP DP  RH WIND       PRES   REMARKS
LAS VEGAS      MOSUNNY   62  21  20 S13G20    29.82S
SALT LAKE CITY CLOUDY    53  15  22 S23G31    29.54F
$$

NMZ009-TXZ055-181800-
NEW MEXICO-WEST TEXAS

CITY           SKY/WX    TMP DP  RH WIND       PRES   REMARKS
ALBUQUERQUE    MOSUNNY   46  39  76 S5        30.00F
EL PASO        PTSUNNY   58  48  69 S6        30.03S
$$


........................KEY........................
SKY/WX - SKY CONDITION/WEATHER
TMP    - TEMPERATURE IN FAHRENHEIT
DP     - DEW POINT IN FAHRENHEIT
RH     - RELATIVE HUMIDITY IN PERCENT
WIND   - DIRECTION AND SPEED IN MILES PER HOUR (MPH)
VRB    - VARIABLE WIND DIRECTION
PRES   - MEAN SEA LEVEL PRESSURE IN INCHES OF MERCURY
         F - FALLING PRESSURE   R - RISING PRESSURE
         S - STEADY PRESSURE
VSB    - VISIBILITY IN MILES
HX     - HEAT INDEX IN FAHRENHEIT
WCI    - WIND CHILL INDEX IN FAHRENHEIT
TC     - TEMPERATURE IN CELSIUS WHICH IS ALSO KNOWN AS
         TEMPERATURE IN CENTIGRADE
AFB    - AIR FORCE BASE
         LUKE AFB IS LUKE AIR FORCE BASE
         DAVIS-MONTHAN IS DAVIS-MONTHAN AIR FORCE BASE
NAS    - NAVAL AIR STATION
         EL CENTRO NAS IS EL CENTRO NAVAL AIR STATION
N/A    - NOT AVAILABLE





USA.gov is the U.S. government's official web portal to all federal, state and local government web resources and services.